KBURKPSP

Guest
Details From KBUR - BOB HOPE
To KPSP - Palm Springs Intl
Flight Number -
Tags generated
Created
Modified
Stats Distance 95 nm / 176 km
Max Altitude 9,400 ft / 2,865 m
Waypoints 3
Social Downloads 4
Likes 0
Share VATSIM

Download

Looking for another format? Having issues loading an existing format? Contact us
Advertisement - Login to hide

Notes

Basic altitude profile: - Ascent Rate: 2500ft/min - Ascent Speed: 250kts - Cruise Altitude: 35000ft - Cruise Speed: 420kts - Descent Rate: 1500ft/min - Descent Speed: 250kts Options: - Use NATs: yes - Use PACOTS: yes - Use low airways: yes - Use high airways: yes

Route

KBUR POM KPSP

ID Type Via Altitude Latitude Longitude Leg Dist Tot Dist Heading (true) Name
O KBUR APT - 0 ft / 0 m 34.20048˚ -118.35877˚ - 0 nm - BOB HOPE
POM VOR - 9,400 ft / 2,865 m 34.07839˚ -117.78708˚ 29 nm 29 nm 104° / 105° POMONA VORTAC
O KPSP APT - 0 ft / 0 m 33.82968˚ -116.50622˚ 65 nm 94 nm 103° / 104° Palm Springs Intl

Altitude Profile

Advertisement - Login to hide

KBUR

Details ICAO KBUR (BUR)
Name BOB HOPE
Region United States
Timezone America/Los_Angeles (UTC-7.0)
Stats Elevation 778 ft / 237 m (AMSL)
Location 34.200475° -118.358767°
Runways 2
Magnetic Variation 12.007° E

METAR

KBUR 272353Z 15009KT 10SM CLR 23/13 A2988 RMK AO2 SLP106 T02280128 10239 20178 56009

Decode

TAF

TAF KBUR 272340Z 2800/2824 20006KT P6SM SKC FM280500 VRB03KT P6SM SKC FM281000 VRB03KT P6SM BKN015 FM281500 VRB03KT 6SM HZ BKN020 FM281700 VRB03KT P6SM SKC FM282000 18008KT P6SM SKC

Decode

Departure Runways

ID Width Length Bearing (true) Bearing (mag) Surface Threshold Offset Overrun Length
08 151 ft / 46 m 5,835 ft / 1,779 m 90.92° 78.91° Asphalt 0 ft / 0 m 259 ft / 79 m
15 151 ft / 46 m 6,962 ft / 2,122 m 167.12° 155.11° Asphalt 909 ft / 277 m 0 ft / 0 m
26 151 ft / 46 m 5,835 ft / 1,779 m 270.93° 258.92° Asphalt 0 ft / 0 m 253 ft / 77 m
33 151 ft / 46 m 6,962 ft / 2,122 m 347.12° 335.11° Asphalt 351 ft / 107 m 0 ft / 0 m

KPSP

Details ICAO KPSP (PSP)
Name Palm Springs Intl
Region United States
Timezone America/Los_Angeles (UTC-7.0)
Stats Elevation 477 ft / 145 m (AMSL)
Location 33.829677° -116.506218°
Runways 2
Magnetic Variation 11.540° E

METAR

KPSP 272353Z 32013G18KT 10SM CLR 34/06 A2974 RMK AO2 SLP067 T03440061 10361 20289 56017

Decode

TAF

KPSP 272337Z 2800/2824 33013G21KT P6SM SKC FM280600 33010KT P6SM SKC FM280800 VRB04KT P6SM SKC FM282100 34010KT P6SM SKC

Decode

Destination Runways

ID Width Length Bearing (true) Bearing (mag) Surface Threshold Offset Overrun Length
13L 75 ft / 23 m 4,958 ft / 1,511 m 143.52° 131.98° Asphalt 0 ft / 0 m 151 ft / 46 m
13R 151 ft / 46 m 10,012 ft / 3,052 m 143.52° 131.98° Asphalt 2,999 ft / 914 m 200 ft / 61 m
31L 151 ft / 46 m 10,012 ft / 3,052 m 323.53° 311.99° Asphalt 1,499 ft / 457 m 200 ft / 61 m
31R 75 ft / 23 m 4,958 ft / 1,511 m 323.53° 311.99° Asphalt 0 ft / 0 m 151 ft / 46 m

Popular Alternatives